Temp
68 64 64 64 63 60 58 58 58 63 59 66 68 67 68 70 68 68 67 68 70 72 73 72 72 73 75 77 77 75 72 71 70 70 70 68 67 67 67 66 67 67 66 66
63 67 65 65 65 64 63 61 62 61 61 68 69 67 67 68 68 68 68 71 71 72 71 71 72 71 74 75 76 75 72 71 71 69 69 69 68 68 66 67 66 67 66 66
55 58 58 53 67 65 64 63 65 59 67 67 65 68 69 67 69 71 71 71 68 70 71 72 71 72 72 74 75 73 72 71 71 69 67 65 65 66 66 66 67 66 66 66
57 50 43 63 66 73 70 65 66 65 67 66 68 69 69 68 71 71 69 69 68 69 69 70 71 72 72 71 72 72 71 71 69 68 67 65 65 65 66 65 65 66 66 66
47 46 53 59 62 65 67 63 64 64 66 68 69 69 66 68 70 69 70 69 70 71 70 69 70 71 70 69 70 70 70 69 69 68 67 67 66 65 67 65 65 66 66 65
44 46 47 54 61 65 63 57 64 64 64 64 64 62 61 65 70 69 69 70 70 72 72 71 70 70 69 68 68 69 70 70 69 69 67 65 66 66 66 65 65 65 65 64
46 45 50 57 61 64 58 55 60 62 64 66 61 63 67 68 68 69 69 71 72 71 70 70 69 69 67 66 67 69 69 70 70 69 68 67 65 64 63 64 64 63 62 61
47 47 45 60 61 59 61 60 61 64 62 62 62 64 65 67 67 68 68 70 71 70 71 70 68 69 66 66 67 67 67 66 66 66 66 64 63 62 63 62 62 63 63 61
49 48 54 56 55 59 62 66 65 62 63 64 65 64 66 65 66 65 66 66 67 68 67 66 68 68 65 64 66 65 64 63 64 64 64 63 62 62 62 63 61 62 62 62
51 55 55 56 59 61 61 61 63 63 63 64 62 64 63 65 65 64 65 65 65 65 63 62 64 64 64 64 65 64 63 63 63 63 62 62 62 63 62 61 61 61 62 61
51 55 57 60 59 58 61 63 63 63 63 62 63 61 63 62 62 62 62 62 63 62 62 62 63 63 64 64 64 63 63 62 62 61 62 62 61 58 60 57 57 61 60 61
48 56 56 55 59 61 61 61 62 62 62 62 62 60 62 60 60 61 61 62 61 61 62 62 62 63 64 65 66 65 63 61 61 61 61 61 54 52 46 45 45 44 45 54
52 54 57 59 62 64 61 61 63 62 60 60 60 60 61 60 59 60 61 62 62 61 61 61 62 63 63 63 64 64 63 60 61 61 61 58 56 54 53 49 43 42 43 44
56 57 56 57 56 61 62 63 62 63 62 61 61 61 61 60 59 59 59 61 62 62 61 61 62 62 62 62 63 62 62 57 61 60 59 57 56 55 54 54 53 52 45 46
56 59 57 59 60 59 60 61 60 58 59 59 59 59 59 59 59 59 59 61 62 62 61 62 61 62 62 63 62 62 60 60 61 60 58 56 56 55 55 54 53 52 51 46
56 57 57 56 56 57 57 56 55 56 56 56 56 57 57 58 57 58 59 60 59 60 62 60 60 62 63 62 63 62 61 58 58 59 56 55 55 55 54 53 52 53 53 54
52 50 52 52 53 53 54 55 56 56 57 56 56 57 57 57 57 57 58 59 59 59 60 60 61 63 63 62 60 59 62 61 58 59 57 57 57 56 55 54 54 54 55 53
53 52 51 52 52 53 54 55 55 56 55 56 57 57 56 55 54 55 57 58 59 59 60 60 60 60 61 60 60 60 61 59 59 59 57 57 56 56 56 55 54 55 55 53
55 54 54 55 54 54 54 54 54 54 55 55 55 55 55 55 56 56 56 56 56 57 57 58 59 59 59 60 58 58 58 59 57 57 57 54 56 56 56 56 55 56 55 54
54 55 55 55 56 54 53 54 54 54 55 54 54 54 53 54 55 55 56 55 55 56 58 58 57 57 58 60 59 59 59 58 57 56 56 57 56 56 57 52 57 54 53 51
53 54 54 54 54 54 54 53 52 53 53 53 52 52 52 54 55 57 55 55 57 57 58 57 57 56 56 57 58 58 57 57 56 55 55 56 56 57 58 58 57 54 55 55
52 52 53 53 52 52 53 52 53 53 53 53 54 54 54 54 55 55 56 56 56 53 57 57 57 57 59 58 57 57 57 57 56 56 55 55 55 55 55 56 56 56 55 54
50 51 52 52 51 50 51 52 53 53 53 54 53 54 54 53 53 54 55 57 57 55 58 58 55 56 55 56 56 57 57 57 56 55 55 55 55 55 55 55 55 55 54 53
50 50 51 52 51 50 51 52 54 55 54 54 55 55 54 54 56 56 56 54 52 54 57 57 56 54 54 56 55 56 56 55 55 55 55 47 54 55 55 55 54 55 54 50
50 50 51 51 50 49 49 50 51 54 55 55 55 55 56 55 55 57 57 58 52 55 58 53 53 53 57 56 55 55 55 55 55 55 54 54 54 54 54 54 54 55 54 53
50 50 50 50 51 50 50 49 50 51 52 52 54 56 56 56 56 56 56 54 57 54 58 57 57 57 57 56 55 55 55 56 54 54 53 54 54 54 55 55 55 54 53 54
50 48 50 51 51 51 52 51 52 53 52 53 52 55 55 56 56 55 53 57 57 56 56 56 56 54 56 56 55 55 55 55 51 55 54 54 54 54 55 55 54 54 54 53
MSLP
997.34 997.92 998.33 998.29 998.67 999.43 1000.23 1000.28 1000.70 1000.49 1000.52 999.56 998.92 998.90 999.01 998.93 999.89 1000.62 1001.17 1001.74 1001.89 1002.08 1002.29 1002.92 1003.51 1003.90 1004.32 1004.76 1005.51 1006.22 1007.04 1007.77 1008.07 1008.44 1009.33 1010.25 1010.94 1012.28 1012.57 1013.31 1013.76 1014.16 1014.52 1015.09
997.28 997.33 997.52 997.64 997.58 997.88 998.44 999.05 999.50 999.39 998.83 997.59 997.24 998.06 998.54 998.58 999.35 1000.00 1000.37 1000.57 1000.87 1001.47 1002.09 1002.54 1002.78 1003.07 1003.72 1004.34 1004.96 1005.84 1006.35 1006.66 1007.67 1008.47 1008.68 1008.80 1010.66 1011.68 1012.64 1012.10 1013.22 1013.46 1013.83 1014.67
997.92 997.34 997.46 997.06 996.39 996.95 997.38 997.74 997.92 998.39 997.42 996.80 997.41 997.65 997.69 998.22 998.74 998.93 999.12 999.56 1000.17 1000.58 1001.10 1001.57 1002.01 1002.60 1003.21 1003.71 1004.68 1005.45 1005.94 1006.48 1007.21 1008.18 1009.25 1010.04 1011.00 1011.82 1012.87 1011.61 1012.24 1012.88 1013.36 1014.08
998.52 998.21 997.65 995.57 995.23 995.54 996.33 996.72 996.94 996.80 996.54 996.43 996.15 996.36 996.99 997.46 997.77 997.98 998.52 999.33 999.82 1000.39 1001.05 1001.35 1001.90 1002.34 1002.74 1003.38 1004.14 1004.82 1005.26 1005.95 1006.97 1007.64 1008.48 1009.15 1009.85 1011.14 1011.66 1011.76 1011.95 1012.56 1013.26 1013.59
999.20 998.69 997.38 996.32 995.98 996.19 996.15 997.08 997.03 996.71 996.67 996.61 996.12 996.98 997.79 998.10 997.81 998.41 998.89 999.11 999.63 1000.17 1000.67 1001.22 1001.78 1002.20 1002.72 1003.44 1004.10 1004.70 1005.14 1005.56 1006.12 1006.80 1007.83 1008.38 1008.55 1008.85 1011.03 1011.74 1011.78 1012.64 1013.06 1013.23
999.91 998.90 998.15 997.26 996.94 996.62 996.49 997.18 997.48 997.46 997.04 997.12 996.94 997.92 998.93 998.56 998.34 998.47 998.95 999.36 999.73 1000.25 1000.24 1001.47 1001.59 1001.83 1002.44 1003.17 1004.15 1004.30 1004.63 1005.24 1005.71 1006.34 1007.42 1008.00 1008.20 1009.12 1010.30 1010.91 1011.57 1012.59 1012.79 1013.17
1000.29 999.52 998.58 998.34 997.92 997.49 997.57 998.74 998.41 998.14 997.39 997.07 997.59 998.10 999.00 999.07 998.65 998.84 999.05 999.64 1000.02 1000.90 1001.29 1002.05 1002.00 1002.07 1002.37 1002.85 1003.11 1003.65 1004.53 1005.67 1006.51 1006.51 1007.13 1008.12 1008.80 1009.17 1009.99 1010.45 1011.34 1011.93 1011.88 1011.24
1000.98 1000.21 1000.18 999.20 998.11 998.14 997.99 998.74 998.84 999.05 998.65 998.67 999.63 999.72 999.58 999.65 999.46 999.67 999.98 1000.18 1000.63 1001.13 1001.57 1001.63 1001.55 1001.85 1002.45 1002.33 1004.17 1003.17 1004.38 1005.89 1006.59 1006.86 1007.29 1008.04 1008.67 1009.26 1009.86 1010.19 1010.71 1011.03 1010.76 1010.94
1001.89 1001.57 1001.44 1000.59 1000.12 999.57 998.79 998.18 998.78 999.19 999.64 1000.01 1000.20 1000.52 1000.41 1000.32 1000.44 1000.63 1000.58 1001.16 1001.34 1001.53 1001.65 1001.54 1001.96 1002.84 1002.09 1003.97 1003.48 1004.51 1005.19 1006.13 1006.89 1007.42 1007.34 1008.03 1008.66 1009.62 1009.78 1010.09 1010.76 1010.66 1011.32 1011.28
1001.76 1002.24 1002.35 1001.60 1000.78 1000.40 999.68 999.35 999.75 999.66 999.15 1000.06 1000.91 1000.91 1001.44 1001.33 1001.51 1001.46 1001.51 1001.41 1001.56 1001.22 1001.97 1002.54 1002.68 1003.34 1003.34 1003.91 1003.39 1004.35 1005.39 1006.74 1007.42 1008.10 1008.25 1008.67 1009.01 1009.14 1009.14 1009.10 1009.18 1010.05 1011.17 1011.18
1002.42 1002.71 1002.44 1001.90 1002.06 1001.94 1001.10 1000.06 1000.11 1000.12 1000.85 1000.81 1000.87 1002.06 1002.25 1002.45 1002.48 1002.22 1002.46 1002.33 1002.37 1002.56 1002.85 1002.56 1002.77 1003.13 1003.34 1003.21 1003.69 1004.33 1005.05 1005.93 1006.58 1007.17 1007.63 1008.04 1008.12 1008.70 1008.69 1009.00 1009.86 1010.39 1010.58 1010.51
1001.54 1001.34 1000.97 1001.86 1003.50 1002.29 1001.67 1001.58 1001.62 1001.89 1002.23 1002.17 1002.22 1003.02 1002.88 1002.76 1002.69 1002.48 1002.39 1002.46 1002.62 1002.75 1002.45 1002.49 1002.59 1003.07 1003.42 1003.31 1003.08 1003.19 1004.52 1005.39 1005.70 1007.06 1007.92 1007.93 1008.75 1009.26 1009.49 1010.16 1010.37 1010.21 1010.68 1010.97
1001.87 1002.02 1002.57 1002.71 1002.64 1002.78 1001.64 1002.37 1002.96 1002.77 1003.12 1003.41 1003.66 1003.63 1003.64 1003.74 1003.21 1002.94 1003.21 1002.65 1002.64 1003.05 1003.07 1003.41 1003.96 1004.07 1004.17 1004.04 1003.99 1004.15 1004.47 1005.37 1006.13 1006.81 1007.35 1007.89 1008.34 1009.23 1009.73 1010.61 1010.19 1010.73 1010.97 1010.88
1002.91 1003.04 1003.67 1003.55 1003.75 1003.37 1003.33 1002.97 1003.17 1003.47 1003.98 1004.01 1004.08 1003.56 1004.18 1003.82 1003.48 1003.52 1003.26 1003.11 1003.31 1003.44 1003.49 1003.90 1003.96 1004.01 1004.46 1004.86 1004.82 1004.75 1005.23 1005.69 1006.03 1006.76 1007.49 1008.08 1008.59 1009.01 1009.65 1010.36 1010.98 1011.50 1011.37 1011.46
1004.32 1004.07 1004.17 1004.66 1003.73 1004.02 1003.83 1003.84 1004.20 1004.51 1004.16 1004.38 1004.86 1004.84 1004.80 1004.69 1004.70 1004.22 1004.06 1003.62 1003.63 1003.76 1003.67 1003.80 1004.17 1004.58 1004.65 1004.74 1004.91 1005.19 1005.64 1006.03 1006.46 1006.71 1007.30 1007.81 1008.34 1009.01 1009.60 1010.21 1010.64 1010.88 1011.49 1011.96
1005.28 1005.29 1005.60 1005.42 1005.23 1004.87 1004.96 1004.93 1005.32 1005.40 1005.27 1005.28 1005.53 1005.50 1005.06 1004.88 1004.59 1004.27 1003.99 1003.74 1003.67 1003.40 1003.43 1003.96 1004.24 1004.36 1004.46 1004.65 1004.90 1005.27 1005.59 1006.04 1006.44 1006.60 1007.07 1007.80 1008.28 1008.77 1009.41 1009.91 1010.21 1010.82 1011.27 1011.58
1005.69 1005.90 1005.97 1005.78 1005.77 1005.85 1005.85 1005.92 1005.82 1005.89 1005.69 1005.72 1005.85 1005.54 1005.24 1004.76 1004.77 1004.22 1003.71 1003.54 1003.37 1003.44 1003.56 1003.72 1004.20 1004.63 1004.60 1004.82 1005.04 1005.22 1005.97 1006.05 1006.30 1006.69 1007.08 1007.55 1007.83 1008.36 1008.86 1009.63 1009.99 1010.42 1010.62 1011.09
1006.38 1006.36 1006.27 1006.24 1006.20 1006.31 1006.35 1006.33 1006.21 1006.13 1006.22 1006.03 1005.87 1005.42 1005.27 1005.21 1005.02 1004.32 1003.73 1003.58 1003.44 1003.35 1003.46 1003.78 1004.25 1004.63 1004.88 1005.15 1005.36 1005.85 1006.17 1006.23 1006.55 1006.91 1007.34 1007.76 1008.22 1008.61 1008.95 1009.18 1009.59 1009.85 1010.29 1010.85
1006.38 1006.30 1006.45 1006.62 1006.53 1006.61 1006.55 1006.46 1006.46 1006.39 1006.25 1006.28 1005.58 1005.32 1005.38 1005.24 1004.63 1004.14 1004.06 1004.10 1003.94 1003.89 1004.42 1004.32 1004.61 1004.85 1005.13 1005.28 1005.60 1006.09 1006.17 1006.50 1006.87 1007.24 1007.49 1007.88 1008.41 1008.60 1008.88 1009.10 1009.35 1009.63 1010.07 1010.54
1006.84 1006.75 1006.77 1006.84 1006.77 1006.85 1006.83 1006.71 1006.70 1006.56 1006.35 1006.04 1005.72 1005.39 1005.52 1005.50 1004.87 1004.54 1004.48 1004.18 1004.42 1004.39 1004.43 1004.66 1004.99 1005.13 1005.44 1005.62 1005.96 1006.23 1006.56 1006.85 1007.10 1007.34 1007.61 1007.90 1008.14 1008.37 1008.54 1008.82 1009.10 1009.42 1009.78 1010.17
1007.45 1007.45 1007.61 1007.58 1007.45 1007.31 1007.17 1007.11 1006.97 1006.76 1006.38 1006.02 1005.83 1005.74 1005.96 1005.73 1005.27 1004.93 1004.88 1004.96 1004.87 1004.71 1004.55 1004.74 1005.09 1005.53 1005.77 1005.93 1006.21 1006.50 1006.77 1006.91 1007.13 1007.42 1007.77 1008.14 1008.39 1008.51 1008.58 1008.69 1008.81 1009.16 1009.49 1009.81
1008.55 1008.37 1008.11 1007.96 1007.89 1007.76 1007.54 1007.39 1007.24 1007.01 1006.74 1006.50 1006.34 1006.28 1006.25 1005.96 1005.64 1005.43 1005.36 1005.29 1005.08 1005.00 1005.09 1005.24 1005.43 1005.66 1005.98 1006.26 1006.39 1006.43 1006.67 1006.95 1007.38 1007.59 1007.77 1008.22 1008.37 1008.53 1008.59 1008.67 1008.65 1008.85 1009.15 1009.41
1008.78 1008.40 1008.28 1008.19 1008.04 1007.91 1007.62 1007.36 1007.24 1007.07 1006.89 1006.70 1006.51 1006.23 1005.96 1005.79 1005.69 1005.50 1005.30 1005.14 1005.25 1005.36 1005.40 1005.36 1005.52 1005.60 1005.83 1006.19 1006.47 1006.66 1006.96 1007.26 1007.46 1007.64 1007.90 1008.17 1008.24 1008.26 1008.25 1008.34 1008.33 1008.44 1008.72 1008.98
1008.59 1008.36 1008.14 1007.94 1007.82 1007.76 1007.68 1007.48 1007.27 1006.94 1006.87 1006.68 1006.42 1006.21 1006.24 1005.96 1005.53 1005.46 1005.45 1005.35 1005.29 1005.38 1005.35 1005.41 1005.64 1005.90 1006.12 1006.40 1006.63 1006.84 1006.97 1007.08 1007.20 1007.34 1007.51 1007.71 1007.85 1007.94 1007.99 1007.98 1007.98 1008.00 1008.23 1008.63
1008.59 1008.22 1007.94 1007.75 1007.81 1007.76 1007.44 1007.27 1007.12 1006.85 1006.57 1006.42 1006.32 1006.27 1006.22 1006.15 1006.06 1005.57 1005.50 1005.39 1005.38 1005.40 1005.33 1005.47 1005.66 1005.90 1006.14 1006.43 1006.64 1006.73 1006.82 1006.91 1006.98 1007.24 1007.42 1007.52 1007.50 1007.46 1007.39 1007.45 1007.49 1007.60 1007.81 1008.02
1008.25 1008.06 1007.72 1007.59 1007.53 1007.40 1007.36 1007.25 1007.17 1006.93 1006.70 1006.50 1006.21 1005.97 1005.89 1005.73 1005.60 1005.49 1005.42 1005.31 1005.25 1005.26 1005.26 1005.32 1005.45 1005.64 1005.84 1006.08 1006.30 1006.48 1006.62 1006.72 1006.92 1007.10 1007.15 1007.13 1007.11 1007.07 1007.05 1007.08 1007.12 1007.24 1007.38 1007.44
1008.37 1008.02 1007.64 1007.43 1007.49 1007.46 1007.42 1007.42 1007.26 1006.92 1006.76 1006.60 1006.29 1005.84 1005.69 1005.51 1005.40 1005.33 1005.18 1005.03 1004.97 1004.95 1004.90 1004.95 1005.07 1005.22 1005.36 1005.56 1005.73 1005.83 1006.01 1006.19 1006.33 1006.40 1006.47 1006.48 1006.51 1006.49 1006.54 1006.63 1006.74 1006.80 1006.82 1006.86
Wind_Speed
22 11 8 9 8 10 9 7 9 10 11 12 13 14 14 13 7 8 9 10 14 16 15 11 9 10 13 14 13 14 15 16 19 18 15 13 13 10 9 9 9 9 7 6
20 16 12 10 8 10 9 3 7 3 9 10 4 5 6 11 10 10 12 16 14 11 9 10 11 11 12 12 14 13 15 17 13 13 16 17 10 11 10 10 9 11 9 7
13 8 7 7 20 11 7 6 11 9 15 7 6 9 10 10 13 16 16 15 12 13 12 10 11 9 12 12 8 11 13 12 12 12 10 10 2 8 10 10 10 10 8 8
14 5 6 14 6 15 15 5 7 3 7 10 7 7 2 4 11 13 9 9 8 7 6 7 6 8 7 8 10 12 13 12 11 14 15 14 13 11 10 5 9 6 7 9
5 7 4 1 3 5 9 6 2 5 1 4 5 5 4 7 1 4 2 3 3 4 4 4 7 7 7 6 8 10 12 12 14 15 16 16 16 14 11 3 4 3 2 3
3 7 8 5 3 3 4 1 6 4 6 7 6 6 4 6 4 8 8 5 7 5 5 2 3 7 7 6 8 12 12 13 13 13 12 11 6 6 5 5 5 4 4 4
1 1 4 4 9 4 5 4 4 4 2 7 7 5 3 3 10 8 9 9 7 5 5 3 2 4 7 7 12 9 9 8 7 5 5 6 6 5 6 7 7 6 7 5
3 4 0 14 8 5 5 7 5 8 9 16 8 5 7 9 10 11 10 10 7 4 1 2 5 7 8 7 4 10 12 9 8 7 6 6 11 6 6 6 4 3 4 2
1 2 6 9 4 4 2 16 10 12 6 7 10 8 7 8 9 7 8 6 5 5 6 5 5 3 4 2 9 11 12 11 10 7 9 8 8 6 4 4 4 3 3 3
4 7 8 10 9 7 6 11 8 10 15 14 11 13 12 10 7 6 6 6 4 6 8 4 4 4 6 8 12 13 14 10 9 6 6 5 3 4 4 4 3 4 6 6
6 4 2 8 7 5 7 13 15 17 15 13 16 10 9 7 5 5 5 7 6 3 4 7 7 8 9 12 14 13 13 11 9 7 8 8 6 3 1 6 1 4 4 3
7 8 7 8 5 3 14 13 12 15 16 14 14 9 7 10 8 7 7 4 5 5 6 4 7 8 10 13 15 16 11 8 7 5 4 4 5 3 12 6 1 4 6 2
5 9 10 9 9 6 16 13 11 14 10 9 7 6 6 4 6 6 6 6 4 1 1 2 2 6 2 2 2 4 8 6 5 5 5 5 5 6 5 5 13 8 6 11
7 3 11 10 4 5 10 10 9 10 7 6 6 8 5 6 5 7 8 7 3 2 4 3 5 5 4 3 3 5 4 7 4 2 3 4 5 6 5 4 4 3 7 6
10 9 10 4 10 9 9 8 11 9 7 8 6 5 6 8 8 8 6 5 5 5 5 4 4 4 4 5 5 3 3 3 3 3 4 5 5 6 5 5 5 5 4 2
7 8 6 8 8 9 7 8 7 6 5 4 4 5 4 4 5 7 7 3 5 8 9 5 4 4 6 6 4 2 1 3 3 4 5 5 5 6 6 6 6 6 6 6
3 8 7 7 7 7 6 4 5 4 5 5 5 6 6 6 7 7 8 5 6 6 5 6 5 4 3 4 5 3 2 3 4 4 4 5 5 6 5 5 6 6 6 4
6 5 4 4 5 5 5 6 5 6 5 6 6 6 6 6 6 8 9 5 3 3 2 4 5 4 4 4 4 1 2 2 2 2 2 3 4 4 5 5 5 6 5 4
7 9 8 7 6 6 6 7 7 5 5 4 6 8 6 6 6 7 5 3 3 3 4 4 5 5 4 5 6 3 3 4 3 1 2 4 4 4 4 4 5 6 5 5
10 8 8 8 7 6 6 5 6 7 6 7 6 7 9 7 6 4 4 4 3 1 2 5 6 5 5 5 6 4 4 4 4 3 3 3 3 4 4 5 5 4 4 4
8 8 6 6 6 6 6 5 5 7 9 7 6 6 6 7 6 4 3 2 3 2 3 8 5 4 3 5 5 5 5 5 4 4 3 3 3 3 4 5 5 4 5 6
4 4 5 5 5 6 5 5 4 5 6 6 5 4 4 5 4 2 2 1 1 4 3 3 4 7 6 8 4 5 4 4 3 2 2 3 4 5 5 4 5 5 6 7
5 3 3 4 4 5 6 3 4 4 5 5 5 5 4 3 3 2 3 3 1 3 3 3 4 8 11 4 4 4 3 3 2 2 3 5 5 5 5 6 5 5 6 6
4 4 4 4 4 4 3 3 3 3 3 4 5 4 3 4 4 1 3 4 3 4 3 3 4 7 6 4 3 3 2 2 2 2 2 4 5 6 6 6 6 5 5 6
5 4 3 3 3 4 5 3 4 4 4 4 4 4 4 2 2 3 3 1 4 4 2 3 5 7 4 4 4 4 3 3 2 2 3 4 4 5 5 4 5 5 5 6
5 4 3 3 4 3 3 2 3 3 3 3 3 3 3 2 2 2 2 1 2 3 3 3 3 4 5 5 5 5 5 4 4 5 6 6 5 4 4 4 4 5 6 6
4 3 4 3 2 3 3 2 3 4 2 3 5 4 4 3 3 4 5 4 4 4 4 5 5 6 6 6 6 6 6 5 7 5 5 5 5 5 5 6 5 5 5 5
Wind_Direction
224 191 178 204 179 171 177 186 163 232 199 229 212 208 208 206 186 157 177 178 193 200 204 197 195 203 206 206 194 184 185 187 194 193 186 179 181 203 192 184 194 199 196 212
229 208 193 224 212 178 195 132 247 250 227 221 222 110 146 190 181 193 196 203 202 203 192 191 196 197 196 201 200 184 193 202 195 185 185 188 179 186 208 180 197 202 192 204
241 178 174 235 232 207 190 181 171 184 222 168 187 202 211 183 192 203 210 199 188 193 196 196 194 180 196 200 177 183 198 198 189 171 162 126 75 234 235 190 199 209 183 200
242 90 167 235 189 214 209 189 206 222 198 201 190 215 358 318 201 205 180 184 187 177 183 197 171 189 184 172 172 181 191 189 170 169 170 166 181 208 239 211 193 184 198 213
178 163 239 58 54 142 157 220 269 221 218 238 115 80 15 3 218 147 122 84 151 153 190 138 179 179 182 169 160 170 187 187 180 169 174 189 193 187 219 224 121 170 315 217
318 145 183 220 312 42 268 101 6 294 186 169 147 111 262 332 49 83 90 80 78 58 90 308 194 167 171 173 157 183 186 190 184 176 175 208 180 143 135 141 136 184 138 145
292 198 297 13 319 311 138 213 326 321 147 115 81 123 147 175 74 79 81 72 75 82 96 230 149 152 173 169 197 163 160 167 183 143 125 116 123 119 123 119 134 165 173 124
224 46 202 358 341 173 150 138 110 59 50 72 60 70 94 75 78 75 73 64 55 82 189 208 154 154 202 206 74 125 122 125 121 118 121 124 128 139 152 154 177 212 131 139
165 79 304 308 316 348 95 100 105 88 77 96 81 46 50 53 53 59 76 92 94 72 53 39 21 252 96 132 127 110 108 117 119 134 139 157 148 168 176 165 200 108 236 201
98 342 336 353 351 5 31 69 75 87 78 66 61 38 37 32 37 45 28 36 45 73 61 65 94 82 114 129 107 116 112 120 125 130 121 130 176 182 174 150 118 175 222 222
75 192 257 14 4 312 65 72 65 57 60 73 68 40 44 36 34 45 34 17 35 87 141 112 113 115 131 121 123 122 131 148 146 150 153 170 172 181 247 52 67 202 214 153
186 191 138 128 295 308 77 74 72 71 55 47 58 44 35 38 12 23 24 41 46 27 55 87 116 133 147 155 155 147 149 164 137 129 189 143 135 65 52 43 236 208 281 168
127 86 90 106 84 61 81 68 58 63 61 59 48 62 43 25 21 21 5 13 39 31 355 116 135 149 110 103 113 147 138 125 148 168 167 167 152 171 162 55 65 59 127 113
28 80 58 29 78 49 74 77 81 73 61 58 42 43 20 20 23 27 3 322 305 201 173 188 175 158 159 154 102 87 122 187 190 155 140 151 176 159 137 155 154 134 37 66
54 70 76 358 48 42 47 52 58 47 36 35 18 32 20 13 350 330 326 298 223 206 207 182 184 192 142 145 153 169 258 237 210 131 136 147 143 142 150 161 166 139 128 113
75 72 87 67 49 40 38 38 48 29 34 22 7 350 341 309 301 300 304 280 183 218 213 195 204 195 174 191 199 177 175 126 149 140 129 137 147 153 152 164 159 173 185 178
112 38 26 44 41 30 38 40 47 21 349 356 321 314 315 324 309 300 295 288 233 239 200 183 195 201 179 149 139 127 173 130 131 129 147 156 151 156 166 171 178 187 188 174
99 121 92 82 52 34 17 12 3 357 343 317 320 319 343 333 291 287 295 318 286 234 178 89 116 111 104 103 116 122 140 114 99 106 120 140 167 164 173 166 177 176 170 170
49 50 45 48 36 19 11 4 353 326 327 320 345 340 330 318 323 317 334 22 30 7 38 57 119 116 126 149 131 143 118 109 107 112 148 136 152 158 167 169 175 179 178 175
42 43 36 21 14 15 354 357 350 343 342 349 342 353 353 334 330 347 5 45 15 7 148 118 123 115 110 99 117 103 110 122 128 126 138 154 161 174 184 185 187 178 173 174
19 12 6 3 354 351 356 345 339 336 332 341 348 342 337 325 359 13 26 354 318 9 110 121 116 109 107 108 115 122 128 119 115 126 137 158 171 193 203 200 191 182 205 207
333 331 330 334 331 321 331 328 327 329 328 328 326 312 310 320 334 320 211 157 298 156 119 121 128 143 137 125 117 102 92 92 99 122 140 181 190 191 200 204 203 205 207 211
293 273 295 310 309 313 318 313 314 307 311 321 329 333 339 311 303 4 18 348 104 135 134 134 133 115 112 102 115 118 124 159 179 195 224 229 224 219 203 207 214 215 215 214
300 310 283 298 319 313 309 295 301 280 248 292 305 312 332 342 333 277 298 289 195 155 133 140 154 150 140 145 149 162 163 189 221 226 233 238 221 214 223 224 221 223 224 220
297 287 264 324 341 310 305 298 328 333 349 339 316 313 302 251 232 313 319 260 185 179 172 171 196 179 171 175 181 189 198 208 213 223 236 234 227 221 217 211 219 224 227 225
336 319 306 286 269 292 293 306 289 292 295 293 290 276 282 299 295 296 293 259 214 225 233 237 223 198 199 198 199 203 207 213 218 226 230 232 229 229 236 236 236 232 231 232
335 322 351 11 45 353 328 304 311 316 313 293 280 280 282 294 275 259 252 254 242 236 238 233 223 216 215 216 218 215 211 214 214 220 227 232 227 232 231 233 242 249 241 231